Torna al catalogo

STARLINK-5302

AttivoComunicazioniVLEO
NORAD 56556·PAYLOAD·🇺🇸 United States

Lanciato May 14, 2023 da Cape Canaveral Space Force Station

Loading…

Prossimi Passaggi (prossime 24 ore)

TLE

AggiornatoSource: CelesTrak SupGP

Epoca: Sep 14, 2026, 22:07 UTC

1 56556C 23065BF  26257.92201389  .00026184  00000+0  94864-3 0  2570
2 56556  43.0025 234.7676 0000710 283.9030  99.3961 15.27557747    19

Traccia STARLINK-5302 in tempo reale con AllMySat

Download on the App Store